| time (UTC) | temp F | wind direction | speed MPH | gust MPH | rain 1hr in | rain 24hr in | rain mn in | humidity % | barometer mb |
| 20260904231601 | 97 | 169 | 1.0 | 4.0 | 0.00 | 0.00 | 0.00 | 29 | 1086.1 |
| 20260904230108 | 97 | 177 | 0.0 | 2.0 | 0.00 | 0.00 | 0.00 | 30 | 1086.1 |
| 20260904224602 | 97 | 177 | 0.0 | 1.0 | 0.00 | 0.00 | 0.00 | 30 | 1086.1 |
| 20260904223003 | 98 | 178 | 0.0 | 2.0 | 0.00 | 0.00 | 0.00 | 30 | 1086.1 |
| 20260904221505 | 98 | 178 | 0.0 | 3.0 | 0.00 | 0.00 | 0.00 | 29 | 1086.1 |
| 20260904220004 | 99 | 154 | 1.0 | 5.0 | 0.00 | 0.00 | 0.00 | 28 | 1086.1 |
| 20260904214508 | 100 | 114 | 1.0 | 5.0 | 0.00 | 0.00 | 0.00 | 28 | 1086.1 |
| 20260904213009 | 100 | 164 | 1.0 | 4.0 | 0.00 | 0.00 | 0.00 | 28 | 1086.1 |
| 20260904211512 | 101 | 155 | 1.0 | 5.0 | 0.00 | 0.00 | 0.00 | 27 | 1086.1 |
| 20260904210014 | 101 | 239 | 0.0 | 5.0 | 0.00 | 0.00 | 0.00 | 27 | 1086.1 |
| 20260904204515 | 100 | 120 | 1.0 | 4.0 | 0.00 | 0.00 | 0.00 | 28 | 1086.1 |
| 20260904203015 | 100 | 233 | 2.0 | 5.0 | 0.00 | 0.00 | 0.00 | 28 | 1086.1 |
| 20260904201509 | 99 | 154 | 0.0 | 3.0 | 0.00 | 0.00 | 0.00 | 30 | 1086.1 |
| 20260904200008 | 99 | 157 | 1.0 | 4.0 | 0.00 | 0.00 | 0.00 | 32 | 1086.1 |
| 20260904194516 | 98 | 235 | 2.0 | 6.0 | 0.00 | 0.00 | 0.00 | 31 | 1086.1 |
| 20260904193021 | 98 | 90 | 1.0 | 4.0 | 0.00 | 0.00 | 0.00 | 32 | 1086.1 |
| 20260904191526 | 99 | 250 | 1.0 | 7.0 | 0.00 | 0.00 | 0.00 | 33 | 1086.1 |
| 20260904190023 | 98 | 243 | 1.0 | 4.0 | 0.00 | 0.00 | 0.00 | 33 | 1086.1 |
| 20260904184526 | 97 | 284 | 2.0 | 7.0 | 0.00 | 0.00 | 0.00 | 35 | 1086.1 |
| 20260904183027 | 97 | 302 | 4.0 | 9.0 | 0.00 | 0.00 | 0.00 | 33 | 1086.1 |
| 20260904181534 | 96 | 252 | 0.0 | 7.0 | 0.00 | 0.00 | 0.00 | 34 | 1086.1 |
| 20260904180041 | 94 | 177 | 0.0 | 4.0 | 0.00 | 0.00 | 0.00 | 36 | 1086.1 |
| 20260904174527 | 93 | 186 | 0.0 | 5.0 | 0.00 | 0.00 | 0.00 | 39 | 1087.2 |
| 20260904173035 | 91 | 150 | 2.0 | 4.0 | 0.00 | 0.00 | 0.00 | 41 | 1087.2 |
| 20260904171553 | 89 | 243 | 1.0 | 4.0 | 0.00 | 0.00 | 0.00 | 44 | 1087.2 |
| 20260904170022 | 87 | 224 | 1.0 | 5.0 | 0.00 | 0.00 | 0.00 | 47 | 1087.2 |
| 20260904164521 | 86 | 257 | 0.0 | 4.0 | 0.00 | 0.00 | 0.00 | 51 | 1087.2 |
| 20260904163020 | 85 | 245 | 1.0 | 3.0 | 0.00 | 0.00 | 0.00 | 53 | 1087.2 |
| 20260904161518 | 84 | 268 | 3.0 | 5.0 | 0.00 | 0.00 | 0.00 | 54 | 1087.2 |
| 20260904160019 | 83 | 237 | 1.0 | 5.0 | 0.00 | 0.00 | 0.00 | 56 | 1087.2 |
| 20260904154533 | 83 | 306 | 2.0 | 5.0 | 0.00 | 0.00 | 0.00 | 58 | 1087.2 |
| 20260904153018 | 82 | 231 | 1.0 | 5.0 | 0.00 | 0.00 | 0.00 | 60 | 1087.2 |
| 20260904151522 | 81 | 287 | 1.0 | 4.0 | 0.00 | 0.00 | 0.00 | 63 | 1087.2 |
| 20260904150021 | 81 | 253 | 1.0 | 5.0 | 0.00 | 0.00 | 0.00 | 64 | 1087.2 |
| 20260904144522 | 80 | 248 | 0.0 | 8.0 | 0.00 | 0.00 | 0.00 | 65 | 1087.2 |
| 20260904143023 | 80 | 187 | 0.0 | 1.0 | 0.00 | 0.00 | 0.00 | 66 | 1087.2 |
| 20260904141522 | 79 | 178 | 0.0 | 0.0 | 0.00 | 0.00 | 0.00 | 66 | 1087.2 |
| 20260904140022 | 79 | 178 | 0.0 | 2.0 | 0.00 | 0.00 | 0.00 | 66 | 1087.2 |
| 20260904134522 | 79 | 177 | 0.0 | 2.0 | 0.00 | 0.00 | 0.00 | 66 | 1087.2 |
| 20260904133029 | 79 | 177 | 0.0 | 3.0 | 0.00 | 0.00 | 0.00 | 66 | 1087.2 |
| 20260904131524 | 79 | 216 | 0.0 | 1.0 | 0.00 | 0.00 | 0.00 | 65 | 1087.2 |
| 20260904130025 | 79 | 216 | 0.0 | 2.0 | 0.00 | 0.00 | 0.00 | 65 | 1087.2 |
| 20260904124527 | 79 | 224 | 0.0 | 2.0 | 0.00 | 0.00 | 0.00 | 65 | 1087.2 |
| 20260904123020 | 79 | 225 | 0.0 | 2.0 | 0.00 | 0.00 | 0.00 | 65 | 1087.2 |
| 20260904121527 | 79 | 223 | 0.0 | 0.0 | 0.00 | 0.00 | 0.00 | 65 | 1087.2 |
| 20260904120039 | 79 | 225 | 0.0 | 0.0 | 0.00 | 0.00 | 0.00 | 65 | 1087.2 |
| 20260904114530 | 79 | 223 | 0.0 | 0.0 | 0.00 | 0.00 | 0.00 | 65 | 1087.2 |
| 20260904113035 | 79 | 225 | 0.0 | 0.0 | 0.00 | 0.00 | 0.00 | 65 | 1087.2 |
| 20260904111535 | 79 | 225 | 0.0 | 0.0 | 0.00 | 0.00 | 0.00 | 64 | 1087.2 |
| 20260904110035 | 79 | 226 | 0.0 | 1.0 | 0.00 | 0.00 | 0.00 | 64 | 1087.2 |
| 20260904104603 | 79 | 226 | 0.0 | 0.0 | 0.00 | 0.00 | 0.00 | 64 | 1087.2 |
| 20260904103042 | 79 | 226 | 0.0 | 2.0 | 0.00 | 0.00 | 0.00 | 64 | 1087.2 |
| 20260904101545 | 79 | 225 | 0.0 | 2.0 | 0.00 | 0.00 | 0.00 | 64 | 1087.2 |
| 20260904100106 | 79 | 225 | 0.0 | 1.0 | 0.00 | 0.00 | 0.00 | 64 | 1087.2 |
| 20260904094559 | 79 | 225 | 0.0 | 0.0 | 0.00 | 0.00 | 0.00 | 63 | 1087.2 |
| 20260904093048 | 80 | 226 | 0.0 | 1.0 | 0.00 | 0.00 | 0.00 | 63 | 1087.2 |
| 20260904091552 | 80 | 226 | 0.0 | 2.0 | 0.00 | 0.00 | 0.00 | 63 | 1087.2 |
| 20260904090053 | 80 | 227 | 0.0 | 4.0 | 0.00 | 0.00 | 0.00 | 63 | 1087.2 |
| 20260904084550 | 80 | 202 | 0.0 | 2.0 | 0.00 | 0.00 | 0.00 | 62 | 1087.2 |
| 20260904083051 | 80 | 191 | 1.0 | 5.0 | 0.00 | 0.00 | 0.00 | 62 | 1087.2 |
| 20260904081552 | 80 | 243 | 0.0 | 3.0 | 0.00 | 0.00 | 0.00 | 62 | 1087.2 |
| 20260904080121 | 80 | 241 | 0.0 | 2.0 | 0.00 | 0.00 | 0.00 | 61 | 1087.2 |
| 20260904074608 | 80 | 241 | 0.0 | 2.0 | 0.00 | 0.00 | 0.00 | 61 | 1087.2 |
| 20260904073102 | 80 | 241 | 0.0 | 2.0 | 0.00 | 0.00 | 0.00 | 61 | 1087.2 |
| 20260904071606 | 80 | 241 | 0.0 | 3.0 | 0.00 | 0.00 | 0.00 | 60 | 1087.2 |
| 20260904064505 | 81 | 192 | 0.0 | 1.0 | 0.00 | 0.00 | 0.00 | 59 | 1087.2 |
| 20260904063007 | 81 | 191 | 0.0 | 0.0 | 0.00 | 0.00 | 0.00 | 59 | 1087.2 |
| 20260904061512 | 81 | 191 | 0.0 | 0.0 | 0.00 | 0.00 | 0.00 | 58 | 1087.2 |
| 20260904060009 | 81 | 194 | 0.0 | 3.0 | 0.00 | 0.00 | 0.00 | 58 | 1087.2 |
| 20260904054511 | 81 | 197 | 0.0 | 2.0 | 0.00 | 0.00 | 0.00 | 57 | 1087.2 |
| 20260904053009 | 81 | 177 | 0.0 | 1.0 | 0.00 | 0.00 | 0.00 | 56 | 1087.2 |
| 20260904051512 | 81 | 173 | 0.0 | 2.0 | 0.00 | 0.00 | 0.00 | 55 | 1087.2 |
| 20260904050027 | 81 | 172 | 0.0 | 2.0 | 0.00 | 0.00 | 0.00 | 54 | 1087.2 |
| 20260904044521 | 81 | 173 | 1.0 | 3.0 | 0.00 | 0.00 | 0.00 | 54 | 1087.2 |
| 20260904043021 | 81 | 180 | 0.0 | 5.0 | 0.00 | 0.00 | 0.00 | 54 | 1087.2 |
| 20260904041524 | 81 | 177 | 0.0 | 1.0 | 0.00 | 0.00 | 0.00 | 54 | 1087.2 |
| 20260904040020 | 82 | 179 | 0.0 | 2.0 | 0.00 | 0.00 | 0.00 | 54 | 1087.2 |
| 20260904034526 | 82 | 177 | 0.0 | 2.0 | 0.00 | 0.00 | 0.00 | 54 | 1087.2 |
| 20260904033028 | 83 | 145 | 0.0 | 2.0 | 0.00 | 0.00 | 0.00 | 54 | 1087.2 |
| 20260904031524 | 83 | 171 | 0.0 | 4.0 | 0.00 | 0.00 | 0.00 | 53 | 1087.2 |
| 20260904030022 | 83 | 177 | 1.0 | 3.0 | 0.00 | 0.00 | 0.00 | 53 | 1087.2 |
| 20260904024528 | 84 | 174 | 0.0 | 2.0 | 0.00 | 0.00 | 0.00 | 53 | 1087.2 |
| 20260904023025 | 84 | 175 | 0.0 | 4.0 | 0.00 | 0.00 | 0.00 | 52 | 1087.2 |
| 20260904021533 | 85 | 164 | 0.0 | 5.0 | 0.00 | 0.00 | 0.00 | 52 | 1087.2 |
| 20260904020038 | 86 | 173 | 0.0 | 3.0 | 0.00 | 0.00 | 0.00 | 51 | 1087.2 |
| 20260904014533 | 86 | 123 | 1.0 | 3.0 | 0.00 | 0.00 | 0.00 | 48 | 1087.2 |
| 20260904013035 | 86 | 183 | 0.0 | 3.0 | 0.00 | 0.00 | 0.00 | 46 | 1087.2 |
| 20260904011538 | 87 | 162 | 1.0 | 5.0 | 0.00 | 0.00 | 0.00 | 46 | 1087.2 |
| 20260904010033 | 87 | 164 | 2.0 | 5.0 | 0.00 | 0.00 | 0.00 | 46 | 1087.2 |
| 20260904004535 | 88 | 171 | 1.0 | 4.0 | 0.00 | 0.00 | 0.00 | 45 | 1087.2 |
| 20260904003039 | 89 | 176 | 1.0 | 5.0 | 0.00 | 0.00 | 0.00 | 45 | 1087.2 |
| 20260904001536 | 90 | 172 | 2.0 | 5.0 | 0.00 | 0.00 | 0.00 | 44 | 1087.2 |
| 20260904000103 | 90 | 162 | 1.0 | 5.0 | 0.00 | 0.00 | 0.00 | 44 | 1087.2 |
| 20260903234543 | 91 | 171 | 1.0 | 5.0 | 0.00 | 0.00 | 0.00 | 45 | 1087.2 |
| 20260903233101 | 91 | 178 | 0.0 | 3.0 | 0.00 | 0.00 | 0.00 | 45 | 1087.2 |